Location: Bergnershof
(48.9468°N, 10.9431°E)
Time: 00:28:14
(UTC+00:00)

Cosmos 1844 Rocket - Pass Details

Date: 24 June 2021
Orbit: 823 x 846 km, 71.0° (Epoch: 30 July)

Event Time Altitude Azimuth Distance (km) Brightness Sun altitude
Rises 20:00:28 0° 326° (NW) 3,415 8.1 -5.2°
Reaches altitude 10° 20:03:05 10° 318° (NW) 2,477 7.1 -5.5°
Maximum altitude 20:08:13 36° 253° (WSW) 1,306 4.0 -6.1°
Drops below altitude 10° 20:13:21 10° 188° (S) 2,461 4.8 -6.7°
Sets 20:15:56 0° 180° (S) 3,391 5.4 -7.0°
